This is the latest recevied weather packets stored in our database for station/object K0CPM-2. If no packets are shown the sender has not sent any weather packets the latest 1 day(s).
| Time | Temp. | Humidity | Pressure | Rain* | Wind** | Luminosity | Snow |
|---|---|---|---|---|---|---|---|
| 1778019318 | 27.22° C | 70% | 1008.8 hPa | 0 mm | 0.89 m/s, 145° | - | - |
| 1778018416 | 27.22° C | 71% | 1008.8 hPa | 0 mm | 0.89 m/s, 340° | - | - |
| 1778017520 | 27.78° C | 71% | 1008.9 hPa | 0 mm | 0.89 m/s, 345° | - | - |
| 1778016613 | 27.78° C | 71% | 1009 hPa | 0 mm | 1.79 m/s, 353° | - | - |
| 1778015721 | 27.78° C | 70% | 1009.1 hPa | 0 mm | 1.34 m/s, 23° | - | - |
| 1778014811 | 28.33° C | 69% | 1009.2 hPa | 0 mm | 1.34 m/s, 313° | - | - |
| 1778013911 | 28.89° C | 67% | 1009.3 hPa | 0 mm | 0.89 m/s, 51° | - | - |
| 1778013011 | 28.89° C | 67% | 1009.2 hPa | 0 mm | 1.34 m/s, 134° | - | - |
| 1778012110 | 28.33° C | 68% | 1009.3 hPa | 0 mm | 1.34 m/s, 146° | - | - |
| 1778011208 | 28.33° C | 68% | 1009.4 hPa | 0 mm | 2.24 m/s, 27° | - | - |
| 1778010308 | 28.89° C | 65% | 1009.3 hPa | 0 mm | 0.89 m/s, 295° | - | - |
| 1778009406 | 28.89° C | 62% | 1009.4 hPa | 0 mm | 1.79 m/s, 30° | - | - |
| 1778008504 | 28.89° C | 67% | 1009.7 hPa | 0 mm | 0.89 m/s, 121° | - | - |
| 1778007602 | 29.44° C | 62% | 1009.9 hPa | 0 mm | 0.89 m/s, 128° | - | - |
| 1778006761 | 29.44° C | 64% | 1010.1 hPa | 0 mm | 0.45 m/s, 131° | - | - |
| 1778005856 | 28.33° C | 64% | 1010.3 hPa | 0 mm | 1.34 m/s, 298° | - | - |
| 1778004955 | 28.33° C | 64% | 1010.3 hPa | 0 mm | 1.34 m/s, 9° | - | - |
| 1778004056 | 28.33° C | 65% | 1010.4 hPa | 0 mm | 1.34 m/s, 81° | - | - |
| 1778003150 | 27.78° C | 64% | 1010.3 hPa | 0 mm | 1.34 m/s, 137° | - | - |
| 1778002264 | 27.78° C | 64% | 1010.5 hPa | 0 mm | 1.34 m/s, 302° | - | - |
| 1778001359 | 27.78° C | 66% | 1010.7 hPa | 0 mm | 1.34 m/s, 287° | - | - |
| 1778000445 | 27.78° C | 66% | 1010.4 hPa | 0 mm | 1.34 m/s, 301° | - | - |
| 1777999544 | 27.78° C | 65% | 1010.5 hPa | 0 mm | 0.89 m/s, 278° | - | - |
| 1777998644 | 27.78° C | 65% | 1010.6 hPa | 0 mm | 0.45 m/s, 302° | - | - |
| 1777997741 | 27.22° C | 67% | 1010.5 hPa | 0 mm | 0.89 m/s, 71° | - | - |
* Rain latest hour (hover to see other rain measurements)
** Current wind speed in m/s (hover to see current wind gust speed)